Погода Сытомино

Погода Сытомино : погода сейчас, прогноз погоды и архив. Всё, что Вы хотите узнать о погоде Сытомино!

Поиск расширенной информации на нашем сайте:

Полезная информация: Курсы ораторского искусства и мастерства курсы ораторского мастерства москва.

Другие новости

Новости СМИ2

Главная страница сайта

Новости сайта

02.10.2013

Напоминаем, что на нашем новом сайте вы можете получить высокодетализированные прогнозы погоды по пунктам России, СНГ и мира (включающие важные для авиации метеовеличины, такие как направление и скорость ветра, видимость, явления погоды, количество и форма облачности, нижняя и верхняя граница облачности), а также ознакомиться с разнообразными материалами по авиационной метеорологии и подборкой полезных ссылок на эту тему.

Сайт Метеоцентр.Азия посвящён разработке технологий оптимизации авиаметеорологического обслуживания, включая проектирование и перспективное создание нескольких автоматизированных авиаметеорологических систем:
- система выпуска высокодетальных прогностических карт явлений погоды для нижнего воздушного пространства по России и ближнему зарубежью;
- система верификации прогнозов TAF (выпускаемых синоптиками официальных АМСГ РФ и ближнего зарубежья) и AUTOTAF (выпускаемых сайтом Метеоцентр.Азия) - выявление ошибок, онлайн-сопоставление с фактической погодой METAR, автоматическое внесение коррективов в прогнозы при резком отклонении фактической погоды от прогноза, подсчёт оправдываемости прогнозов по элементам и в целом;
- система обработки, анализа и отображения авиаметеорологической информации для применения провайдерами метеорологической информации.

Рекомендуем: художник

Погода Сытомино - сегодня

Время (UTC), дата Ветер
(°,м/с) 
Видим.   Явления Облачность Т
(°С)
Тd
(°С)
f(%) Тe
(°С)
Pmin
(гПа)
dP
(гПа)
Po
(мм)
O2
(г/м3)
Тmin Tmax R s Состояние
почвы
18 22.02.17 200 (Ю) 10 км  {ливн. осадки}  10/10 600 м 
[Sc]
+0.8 -0.1 94 -2  1000.9  0.6  748  300           
21 22.02.17 210 (ЮЗ) 5{10}  10 км  слаб. дождь  10/10 300 м 
[Frnb|Ns]
+1.1 +0.3 94 -2  1001.8  0.9  748  300           
00 23.02.17 200 (Ю) 5{10}  10 км  слаб. дождь  10/10 300 м 
[Frnb|Ns]
+1.4 -0.2 89 -1  1002.9  1.1  749  300           
03 23.02.17 190 (Ю) 5{11}  10 км  слаб. снег{дождь}  10/8 300 м средняя 
[Frnb|As op]
+1.3 -0.6 87 -1  1003.7  0.8  750  301  +0.2    0.5  57  неравномерный
мокрый или
старый снег
100% 
06 23.02.17 210 (ЮЗ) 5-10{11}  10 км  {снег, дождь}  10/10 600 м 
[Sc]
+1.8 -1.2 80 -1  1004.7  750  301           
09 23.02.17 220 (ЮЗ) 5-11{11}  10 км  слаб. ливневой снег  10/10 600 м кучево-дожд. 
[Cb cap]
+1.8 -1.9 76 -1  1005.7  751  301           
12 23.02.17 220 (ЮЗ) 4{12}  10 км  {ливн. осадки}  10/10 600 м кучево-дожд. 
[Cb cap]
+0.8 -3.3 74 -2  1007.2  1.5  752  303           
15 23.02.17 220 (ЮЗ) 3{12}  10 км  слаб. ливневой снег  10/10 600 м кучево-дожд. 
[Cb cap]
-1.2 -2.4 92 -3  1008.7  1.4  753  305    +2.3  0.3     
18 23.02.17 200 (Ю) 10 км  слаб. ливневой снег  10/10 300 м кучево-дожд. 
[Cb cap]
-1.7 -1.8 99 -3  1009.5  0.8  754  306           
21 23.02.17 040 (СВ) 10 км  {ливн. осадки}  10/10 600 м 
[Sc]
-5.9 -6.7 94 -7  1010.4  0.8  755  311           
00 24.02.17 060 (СВ) 10 км  {ливн. осадки}  10/10 600 м 
[Sc]
-7.9 -8.7 94 -9  1010.3  0.1  755  314           
03 24.02.17 040 (СВ) 10 км    10/10 600 м 
[Sc]
-8.8 -10 91 -10  1010.9  0.5  755  315  -9.1    55  неравномерный
сухой снег
100% 
06 24.02.17 030 (СВ) 10 км    10/10 600 м 
[Sc]
-7.9 -9.9 86 -9  1012.1  1.2  756  315           
09 24.02.17 030 (СВ) 10 км    10/8 600 м средняя, верхняя 
[Sc|Ac trans|Ci sp]
-5.8 -9.6 74 -8  1013.4  1.3  757  313           
12 24.02.17 030 (СВ) 10 км    10/0 средняя 
[Ac lent]
-8.8 -11.6 80 -12  1014.9  1.4  758  317           
15 24.02.17 040 (СВ) 10 км  слаб. снег  10/0 средняя 
[Ac As]
-10.3 -12.5 84 -13  1015.9  0.9  759  319    -5.8  0.0     
18 24.02.17 050 (СВ) 10 км  слаб. снег  10/0 средняя 
[Ac As]
-10.8 -12.5 87 -14  1016.9  759  320           
21 24.02.17 040 (СВ) 10 км  слаб. снег  10/5 300 м средняя 
[Frnb|As op]
-11.2 -12.9 87 -13  1017.8  0.9  760  321           
00 25.02.17 050 (СВ) 10 км  {снег}  10/6 600 м средняя 
[Sc|Ac lent]
-11.6 -13.5 86 -14  1018.5  0.6  761  321           
03 25.02.17 060 (СВ) 10 км    10/0 средняя 
[Ac lent]
-13.7 -15.7 85 -17  1019.2  0.7  761  324  -13.7    57  неравномерный
сухой снег
100% 
06 25.02.17 070 (В) 10 км  слаб. снег  10/0 средняя 
[Ac As]
-12.2 -14.7 82 -16  1019.5  0.3  761  322           
09 25.02.17 060 (СВ) 10 км  {снег}  10/10 600 м 
[Sc]
-10.7 -14 77 -14  1019.2  -0.3  761  320           
12 25.02.17 070 (В) 10 км  {снег}  10/0 средняя 
[Ac lent]
-10 -12.9 79 -14  1018.4  -0.8  761  319           
15 25.02.17 090 (В) 10 км    10/10 600 м 
[Sc]
-9.2 -11.9 81 -13  1017.3  -1.1  760  318    -9.1  0.0     
18 25.02.17 100 (В) 10 км    8/0 средняя, верхняя 
[Ac trans|Ci fib]
-10.4 -12.9 82 -14  1015.8  -1.5  759  319           
Время (UTC), дата Ветер
(°,м/с) 
Видим.   Явления Облачность Т
(°С)
Тd
(°С)
f(%) Тe
(°С)
Pmin
(гПа)
dP
(гПа)
Po
(мм)
O2
(г/м3)
Тmin Tmax R s Состояние
почвы

Для получения пояснительной информации подведите курсор к названию столбца.

ПОГОДА Сытомино - архив

Всё, что Вы хотите узнать о погоде Сытомино - удобно и подробно!

Выберите нужную дату (начиная с 1 января 2015* года) и нажмите кнопку "Найти".
Будут отображены архивные сводки погоды по пункту Сытомино, начиная с указанной даты.


Отображать данные в формате CSV (для использования в таблицах Excel)


Внимание! Наш архив погоды предназначен исключительно для личного некоммерческого использования в познавательных целях. Если Вам необходимы официальные справки о состоянии погоды (для производственных, юридических, коммерческих и т.п. целей), обращайтесь в органы Росгидромета.

*Примечание: данная дата относится к архиву по метеостанциям СССР (Россия, СНГ, Балтия).
Архив по метеостанциям Зарубежной Европы и Азии (кроме Китая) хранится 10 дней, по другим регионам земного шара (Китай, Африка, Америка, Австралия, Океания) - 1 день.

Сытомино - район местоположения метеостанции


Название, широта, долгота, высота метеостанции:
Сытомино 61.3°ш. 71.3°д. 33 м над ур. моря [Российская Федерация]

Дополнительная информация

В oтличие oт бoльшинства пoгoдных сайтoв мы публикуем пoдрoбную метеoинфoрмацию в детальнoм прoфессиoнальнoм фoрмате.

Характеристики температуры и влажнoсти вoздуха измеряются на высoте 2 м в тени вдали oт зданий и деревьев.
Скoрoсть ветра измеряется на высoте 10 м (на урoвне рoста челoвека скoрoсть ветра ниже в 1.5-2 раза). Если метеoстанция нахoдится в гoрoде или в лесу, тo скoрoсть ветра занижена на 2-4 м/с пo сравнению с oткрытым местoм. Скoрoсть ветра над акватoриями крупных рек и oзёр, а также на вершинах хoлмoв на 2-5 м/с выше, чем в oбычных услoвиях.
Атмoсфернoе давление в разных тoчках местнoсти мoжет значительнo oтличаться oт давления на метеoстанции, в зависимoсти oт услoвий рельефа (при пoдъёме на 10 м давление пoнижается примернo на 1 мм рт.ст.).